This demonstration page uses our WeatherBlox Daily Observations layout. Learn more.

Left ArrowRight Arrow

53.62937, 11.41316

Hourly Observations for August 11, 2022

Temp ( °F °C ) Dew Point ( °F °C ) Humidity (%) Winds ( mph kmh ) Pressure ( in mb ) Visibility ( mi km ) Precip ( " mm )
12:20 am 00:20 Clear 59 15 55 13 88 88 Calm 30.27 1025 6 10 0.00 0.00
12:50 am 00:50 Clear 57 14 54 12 88 88 Calm 30.27 1025 6 10 0.00 0.00
1:20 am 01:20 Clear 57 14 55 13 94 94 Calm 30.27 1025 6 10 0.00 0.00
1:50 am 01:50 Clear 55 13 54 12 94 94 E 1 2 30.27 1025 6 10 0.00 0.00
2:20 am 02:20 Clear 55 13 54 12 94 94 Calm 30.27 1025 6 10 0.00 0.00
2:50 am 02:50 Clear 55 13 54 12 94 94 Calm 30.27 1025 6 10 0.00 0.00
3:20 am 03:20 Clear 55 13 54 12 94 94 Calm 30.27 1025 6 10 0.00 0.00
3:50 am 03:50 Mostly Clear 55 13 54 12 94 94 Calm 30.27 1025 6 10 0.00 0.00
4:20 am 04:20 Clear 54 12 52 11 94 94 E 1 2 30.27 1025 6 10 0.00 0.00
4:50 am 04:50 Clear 54 12 54 12 100 100 E 1 2 30.27 1025 6 10 0.00 0.00
5:20 am 05:20 Mostly Clear 52 11 52 11 100 100 Calm 30.27 1025 4 7 0.00 0.00
5:50 am 05:50 Sunny 54 12 52 11 94 94 Calm 30.27 1025 6 10 0.00 0.00
6:20 am 06:20 Mostly Sunny 54 12 52 11 94 94 Calm 30.27 1025 6 10 0.00 0.00
6:50 am 06:50 Mostly Sunny 55 13 54 12 94 94 Calm 30.27 1025 6 10 0.00 0.00
7:20 am 07:20 Mostly Sunny 59 15 57 14 94 94 VRB 1 2 30.27 1025 6 10 0.00 0.00
7:50 am 07:50 Mostly Sunny 61 16 57 14 88 88 E 2 4 30.27 1025 6 10 0.00 0.00
8:20 am 08:20 Mostly Sunny 64 18 57 14 77 77 E 5 7 30.27 1025 6 10 0.00 0.00
8:50 am 08:50 Mostly Sunny 66 19 55 13 68 68 NE 5 7 30.27 1025 6 10 0.00 0.00
9:20 am 09:20 Mostly Sunny 70 21 55 13 60 60 E 3 6 30.26 1025 6 10 0.00 0.00
9:50 am 09:50 Mostly Sunny 72 22 57 14 60 60 NE 3 6 30.26 1025 6 10 0.00 0.00
10:20 am 10:20 Mostly Sunny 75 24 57 14 54 54 ENE 3 6 30.26 1025 6 10 0.00 0.00
10:50 am 10:50 Mostly Sunny 77 25 55 13 47 47 E 5 7 30.26 1025 6 10 0.00 0.00
11:20 am 11:20 Mostly Sunny 77 25 54 12 44 44 E 6 9 30.26 1025 6 10 0.00 0.00
11:50 am 11:50 Mostly Sunny 79 26 52 11 39 39 E 6 9 30.26 1025 6 10 0.00 0.00
12:20 pm 12:20 Mostly Sunny 81 27 54 12 39 39 VRB 6 9 30.26 1025 6 10 0.00 0.00
12:50 pm 12:50 Mostly Sunny 81 27 52 11 37 37 VRB 6 9 30.23 1024 6 10 0.00 0.00
1:20 pm 13:20 Mostly Sunny 82 28 54 12 37 37 E 6 9 30.23 1024 6 10 0.00 0.00
1:50 pm 13:50 Mostly Sunny 81 27 54 12 39 39 NNE 13 20 30.23 1024 6 10 0.00 0.00
2:20 pm 14:20 Mostly Sunny 81 27 52 11 37 37 ENE 10 17 30.23 1024 6 10 0.00 0.00
2:50 pm 14:50 Mostly Sunny 81 27 52 11 37 37 NNE 12 19 30.23 1024 6 10 0.00 0.00
3:20 pm 15:20 Mostly Sunny 81 27 54 12 39 39 NNE 10 17 30.20 1023 6 10 0.00 0.00
3:50 pm 15:50 Mostly Sunny 82 28 54 12 37 37 NE 12 19 30.20 1023 6 10 0.00 0.00
4:20 pm 16:20 Mostly Sunny 81 27 52 11 37 37 ENE 12 19 30.20 1023 6 10 0.00 0.00
4:50 pm 16:50 Mostly Sunny 81 27 52 11 37 37 NE 12 19 30.20 1023 6 10 0.00 0.00
5:20 pm 17:20 Mostly Sunny 79 26 54 12 42 42 NNE 13 20 30.20 1023 6 10 0.00 0.00
5:50 pm 17:50 Mostly Sunny 79 26 52 11 39 39 NNE 13 20 30.20 1023 6 10 0.00 0.00
6:20 pm 18:20 Mostly Sunny 79 26 52 11 39 39 NNE 12 19 30.20 1023 6 10 0.00 0.00
6:50 pm 18:50 Mostly Sunny 77 25 50 10 39 39 NE 10 17 30.20 1023 6 10 0.00 0.00
7:20 pm 19:20 Mostly Sunny 75 24 52 11 44 44 ENE 10 17 30.18 1022 6 10 0.00 0.00
7:50 pm 19:50 Mostly Sunny 75 24 50 10 41 41 ENE 9 15 30.18 1022 6 10 0.00 0.00
8:20 pm 20:20 Mostly Sunny 73 23 52 11 47 47 ENE 6 9 30.18 1022 6 10 0.00 0.00
8:50 pm 20:50 Mostly Sunny 70 21 54 12 56 56 NE 5 7 30.18 1022 6 10 0.00 0.00
9:20 pm 21:20 Mostly Clear 68 20 54 12 60 60 NE 3 6 30.18 1022 6 10 0.00 0.00
9:50 pm 21:50 Mostly Clear 68 20 55 13 64 64 NE 3 6 30.18 1022 6 10 0.00 0.00
10:20 pm 22:20 Clear 66 19 55 13 68 68 ENE 3 6 30.18 1022 6 10 0.00 0.00
10:50 pm 22:50 Clear 64 18 55 13 73 73 ENE 2 4 30.21 1023 6 10 0.00 0.00
11:20 pm 23:20 Clear 64 18 57 14 77 77 E 2 4 30.21 1023 6 10 0.00 0.00
11:50 pm 23:50 Clear 61 16 55 13 82 82 Calm 30.21 1023 6 10 0.00 0.00

Powered by AerisWeather